Hourly Data Report for October 03, 2017

All times are specified in Local Standard Time (LST). Add 1 hour to adjust for Daylight Saving Time where and when it is observed.

ARMSTRONG (AUT)
ONTARIO

50°17'37.000" N
88°54'19.000" W
322.50 m
6040325
71841
WYW

Download Data

Hourly Data (October 2017)
Hourly Data Report for October 3, 2017
Temp Definition
°C
Dew Point Temp Definition
°C
Rel Hum Definition
%
Wind Dir Definition
10's deg

Wind Spd Definition
km/h
Visibility Definition
km
Stn Press Definition
kPa
Hmdx Definition


Wind Chill Definition


Weather Definition


TIME
00:00 14.3 11.9 85 20 4   97.65     LegendNANA
01:00 13.2 11.4 89 12 4   97.63     LegendNANA
02:00 12.7 11.2 91 18 3   97.58     LegendNANA
03:00 12.8 11.3 91   0   97.61     LegendNANA
04:00 12.7 11.4 92 11 3   97.51     LegendNANA
05:00 12.6 11.3 92   0   97.55     LegendNANA
06:00 12.6 11.4 92 0 1   97.57     LegendNANA
07:00 12.7 11.5 93 3 1   97.56     LegendNANA
08:00 12.7 11.6 93 33 3   97.55     LegendNANA
09:00 12.9 11.7 93   0   97.53     LegendNANA
10:00 13.1 11.9 93 36 2   97.55     LegendNANA
11:00 13.3 11.9 91 36 7   97.42     LegendNANA
12:00
13:00
14:00 13.7 11.7 88 35 4   97.58     LegendNANA
15:00 13.3 11.2 87 6 3   97.66     LegendNANA
16:00 13.3 11.5 89 13 4   97.69     LegendNANA
17:00 12.9 11.4 91 18 3   97.71     LegendNANA
18:00 12.5 10.4 87 34 3   97.74     LegendNANA
19:00 12.2 10.9 92 31 4   97.76     LegendNANA
20:00 12.2 10.9 92 31 8   97.79     LegendNANA
21:00 10.7 9.3 91 35 7   97.84     LegendNANA
22:00 10.0 8.7 92 29 9   97.87     LegendNANA
23:00 9.5 7.9 90 31 18   97.94     LegendNANA

Notes on Data Quality.

Legend

  • E = Estimated
  • M = Missing
  • NA = Not Available
  • ‡ = Partner data that is not subject to review by the National Climate Archives
Date modified: